Change the Weather History Date:

Saturday, March 16, 2013

  Actual Average Record
Temperature  
Mean Temperature 39 °F 39 °F  
Max Temperature 51 °F 53 °F 81 °F (2015)
Min Temperature 26 °F 25 °F 7 °F (1988)
Degree Days  
Heating Degree Days 26 26  
Month to date heating degree days 421 443  
Since 1 July heating degree days 5151 5025  
Cooling Degree Days 0 0  
Month to date cooling degree days 0 0  
Year to date cooling degree days 0 0  
Moisture  
Dew Point 28 °F    
Average Humidity 66    
Maximum Humidity 92    
Minimum Humidity 43    
Precipitation  
Precipitation T in 0.04 in 0.49 in (1983)
Month to date precipitation 0.03 0.45  
Year to date precipitation 0.61 0.97  
Sea Level Pressure  
Sea Level Pressure 29.94 in    
Wind  
Wind Speed 10 mph (SSE)    
Max Wind Speed 28 mph    
Max Gust Speed 32 mph    
Visibility 10 miles    
Events      
T = Trace of Precipitation, MM = Missing Value Source: NWS Daily Summary

Daily Weather History Graph

Daily Weather History Graph

Search for Another Location

Airport or City:

Trip Planner

Search our weather history database for the weather conditions in past years. The results will help you decide how hot, cold, wet, or windy it might be!

Date:

Astronomy

Mar. 16, 2013 Rise Set
Actual Time 7:01 AM MDT 7:00 PM MDT
Civil Twilight 6:34 AM MDT 7:27 PM MDT
Nautical Twilight 6:02 AM MDT 7:59 PM MDT
Astronomical Twilight 5:29 AM MDT 8:32 PM MDT
Moon 9:30 AM MDT (3/16) No Moon Set
Length of Visible Light 12h 53m
Length of Day
11h 58m
Waxing Crescent, 23% of the Moon is Illuminated
Mar 16
Waxing Crescent
Mar 19
First Quarter
Mar 27
Full
Apr 2
Last Quarter
Apr 10
New

Hourly Weather History & Observations

Time (MDT) Temp. Windchill Dew Point Humidity Pressure Visibility Wind Dir Wind Speed Gust Speed Precip Events Conditions
12:53 AM 39.9 °F 37.8 °F 27.0 °F 60% 29.89 in 10.0 mi ENE 3.5 mph - N/A   Clear
1:53 AM 39.0 °F 32.8 °F 27.0 °F 62% 29.93 in 10.0 mi NE 9.2 mph - N/A   Clear
2:53 AM 36.0 °F 33.3 °F 27.0 °F 70% 29.95 in 10.0 mi North 3.5 mph - N/A   Clear
3:53 AM 32.0 °F - 26.1 °F 79% 29.96 in 10.0 mi Calm Calm - N/A   Partly Cloudy
4:53 AM 28.0 °F - 23.0 °F 81% 29.97 in 10.0 mi Calm Calm - N/A   Clear
5:53 AM 28.9 °F - 24.1 °F 82% 29.99 in 10.0 mi Calm Calm - N/A   Clear
6:53 AM 28.9 °F 25.2 °F 24.1 °F 82% 30.00 in 10.0 mi NNW 3.5 mph - N/A   Clear
7:53 AM 34.0 °F 28.8 °F 28.0 °F 79% 30.00 in 10.0 mi WNW 5.8 mph - N/A   Clear
8:53 AM 39.0 °F 35.7 °F 30.0 °F 70% 30.01 in 10.0 mi NW 4.6 mph - N/A   Clear
9:53 AM 43.0 °F - 30.0 °F 60% 30.02 in 10.0 mi Calm Calm - N/A   Scattered Clouds
10:53 AM 46.0 °F 41.4 °F 28.9 °F 51% 30.01 in 10.0 mi SSE 9.2 mph - N/A   Clear
11:53 AM 46.9 °F - 27.0 °F 46% 29.99 in 10.0 mi South 8.1 mph - N/A   Mostly Cloudy
12:53 PM 46.9 °F - 27.0 °F 46% 29.98 in 10.0 mi South 15.0 mph - N/A   Overcast
1:53 PM 46.9 °F - 30.9 °F 54% 29.94 in 10.0 mi SSE 13.8 mph - N/A   Clear
2:53 PM 50.0 °F - 28.0 °F 43% 29.90 in 10.0 mi South 17.3 mph 25.3 mph N/A   Partly Cloudy
3:53 PM 50.0 °F - 28.0 °F 43% 29.91 in 10.0 mi South 16.1 mph 25.3 mph N/A   Mostly Cloudy
4:53 PM 48.0 °F - 30.9 °F 52% 29.89 in 10.0 mi South 23.0 mph 29.9 mph 0.00 in   Overcast
5:53 PM 46.9 °F - 30.0 °F 52% 29.90 in 10.0 mi SSE 18.4 mph - N/A   Clear
6:53 PM 44.1 °F 37.1 °F 30.9 °F 60% 29.89 in 10.0 mi South 15.0 mph - N/A   Clear
7:53 PM 39.0 °F 31.4 °F 30.0 °F 70% 29.89 in 10.0 mi SSE 12.7 mph - N/A   Clear
8:53 PM 36.0 °F 27.5 °F 28.9 °F 76% 29.90 in 10.0 mi SE 12.7 mph - N/A   Clear
9:53 PM 34.0 °F 24.2 °F 28.0 °F 79% 29.89 in 10.0 mi SSE 15.0 mph - N/A   Clear
10:53 PM 32.0 °F 23.6 °F 28.0 °F 85% 29.90 in 10.0 mi SE 10.4 mph - N/A   Clear
11:53 PM 30.0 °F 21.1 °F 28.0 °F 92% 29.89 in 8.0 mi SE 10.4 mph - N/A   Partly Cloudy